This is the latest recevied weather packets stored in our database for station/object WD7OO. If no packets are shown the sender has not sent any weather packets the latest 10 day(s).
| Time | Temp. | Humidity | Pressure | Rain* | Wind** | Luminosity | Snow |
|---|---|---|---|---|---|---|---|
| 1778159868 | 7.78° C | 61% | 1015.7 hPa | 0 mm | - | 333 W/m² | - |
| 1778159565 | 7.78° C | 60% | 1015.7 hPa | 0 mm | - | 306 W/m² | - |
| 1778159261 | 7.78° C | 61% | 1015.7 hPa | 0 mm | - | 286 W/m² | - |
| 1778158959 | 7.22° C | 62% | 1015.9 hPa | 0 mm | - | 229 W/m² | - |
| 1778158658 | 7.78° C | 64% | 1015.5 hPa | 0 mm | - | 219 W/m² | - |
| 1778158355 | 7.22° C | 66% | 1015.8 hPa | 0 mm | - | 235 W/m² | - |
| 1778158052 | 6.67° C | 68% | 1015.6 hPa | 0 mm | - | 236 W/m² | - |
| 1778157748 | 6.67° C | 67% | 1015.6 hPa | 0 mm | - | 212 W/m² | - |
| 1778157447 | 6.67° C | 70% | 1015.5 hPa | 0 mm | - | 183 W/m² | - |
| 1778157144 | 6.11° C | 72% | 1015.5 hPa | 0 mm | - | 180 W/m² | - |
| 1778156839 | 6.11° C | 74% | 1015.6 hPa | 0 mm | - | 180 W/m² | - |
| 1778156535 | 5.56° C | 76% | 1015.7 hPa | 0 mm | - | 161 W/m² | - |
| 1778156231 | 5° C | 78% | 1015.8 hPa | 0 mm | - | 128 W/m² | - |
| 1778155927 | 5° C | 80% | 1015.6 hPa | 0 mm | - | 48 W/m² | - |
| 1778155624 | 4.44° C | 81% | 1015.6 hPa | 0 mm | - | 40 W/m² | - |
| 1778155321 | 4.44° C | 81% | 1015.4 hPa | 0 mm | - | 38 W/m² | - |
| 1778155016 | 3.89° C | 82% | 1015.4 hPa | 0 mm | - | 36 W/m² | - |
| 1778154712 | 3.89° C | 84% | 1015.5 hPa | 0 mm | - | 34 W/m² | - |
| 1778154408 | 3.33° C | 87% | 1015.5 hPa | 0 mm | - | 32 W/m² | - |
| 1778154106 | 2.78° C | 90% | 1015.5 hPa | 0 mm | - | 31 W/m² | - |
| 1778153803 | 2.78° C | 92% | 1015.7 hPa | 0 mm | - | 29 W/m² | - |
| 1778153500 | 2.22° C | 94% | 1015.7 hPa | 0 mm | - | 27 W/m² | - |
| 1778153198 | 1.67° C | 95% | 1015.5 hPa | 0 mm | - | 25 W/m² | - |
| 1778152894 | 1.67° C | 95% | 1015.4 hPa | 0 mm | - | 23 W/m² | - |
| 1778152592 | 1.11° C | 95% | 1015.4 hPa | 0 mm | - | 20 W/m² | - |
* Rain latest hour (hover to see other rain measurements)
** Current wind speed in m/s (hover to see current wind gust speed)